THOR ABLESTAR R/B, 953

Orbit data source: Space-Track

THOR ABLESTAR R/B, 953 is space debris in LEO originally from a launch on Sun, 13 Dec 1964 UTC launched from the Air Force Western Test Range (AFWTR). Debris objects in space refer to the collection of defunct objects orbiting the Earth. Examples of debris include non-operational satellites, rocket bodies, and fragments generated from explosions, collisions, or faulty payload assembly.

Loading next visibility...
Identifier
953, 1964-083A
Orbit
LEO
Last TLE update
6 hours ago
Origin
Manufacturer
Aerojet
Mission
Spacecraft
Bus & Motor
ABLESTAR, Unknown motor
Mass
~600 kg wet, 600 kg dry
Launch date (UTC)
1964-12-13 (61 years ago)
Launch vehicle
Unknown
Launch site
Air Force Western Test Range (AFWTR)
Object type
Payload
Rocket body
Debris
Shape & HBR
Cyl, 2.4 m
Radar Cross Section
6.048 m², Large (>1 m²)

Expand to show TLE details & history

TLE from 6 hours ago
0 THOR ABLESTAR R/B
1   953U 64083A   25199.72943722  .00000045  00000-0  49185-4 0  9990
2   953  90.0223 191.9876 0030866 336.8947 197.4154 13.58806737  3797
Epoch: 2025-07-18T17:30Z
TLE epoch observation values (Epoch: 2025-07-18T17:30:23.375Z)
Latitude
5.71429°
Longitude
172.61571°
Altitude
1,064.297 km
Speed
7.309 km/s
True Right ascension
00h 47m 57s
True Declination
5° 40' 54"
Sunlit
Object was in daylight at epoch
Visualization orbit readout
Latitude
27.02957°
Longitude
-7.39723°
Altitude
1,028.904 km
Speed
7.347 km/s
Apparent Right ascension
13h 14m 04s
Apparent Declination
-22° 47' 41"
Sunlit
Object is in daylight
Visualization observer readout
Local Sidereal Time
12:38:44
Azimuth
170.882° S
Elevation
26.75°
Doppler factor
1
Orbital elements
Apogee altitude
1,059.957 km
Perigee altitude
1,014.181 km
Semi-major axis
7,415.206 km
Eccentricity
0.00309
Inclination
90.0223°
RAAN
191.9876°
Arg. of periapsis
336.8947°
True anomaly
197.30993°
Mean anomaly
197.4154°
Eccentric anomaly
197.36262°
Mean motion
3.39906 °/min
Orbital period
105.91 mins
BSTAR
0.000049185
Loading maneuver chart data...
Loading SW <> Apogee altitude chart data...
|